Baltimore, MD

9:47 AM EST on February 23, 2017 (GMT -0500)
Baltimore-Washington International

Weather History for KBWI - March, 2013

Change the Weather History Date:

Saturday, March 16, 2013

  Actual Average Record
Temperature  
Mean Temperature 45 °F 44 °F  
Max Temperature 52 °F 54 °F 85 °F (1945)
Min Temperature 37 °F 33 °F 14 °F (1911)
Degree Days  
Heating Degree Days 20 22  
Month to date heating degree days 383 382  
Since 1 July heating degree days 3675 3977  
Cooling Degree Days 0 0  
Month to date cooling degree days 0 0  
Year to date cooling degree days 0 0  
Moisture  
Dew Point 33 °F    
Average Humidity 67    
Maximum Humidity 82    
Minimum Humidity 52    
Precipitation  
Precipitation T in 0.14 in 2.14 in (2007)
Month to date precipitation 1.39 1.91  
Year to date precipitation 6.98 7.86  
Snow  
Snow 0.00 in 0.00 in 5.10 in (1960)
Month to date snowfall T 1.4  
Since 1 July snowfall 4.8 19.6  
Snow Depth 0.00 in    
Sea Level Pressure  
Sea Level Pressure 29.78 in    
Wind  
Wind Speed 8 mph (ENE)    
Max Wind Speed 17 mph    
Max Gust Speed 24 mph    
Visibility 9 miles    
Events      
T = Trace of Precipitation, MM = Missing Value Source: NWS Daily Summary

Daily Weather History Graph

Daily Weather History Graph

Search for Another Location

Airport or City:

Trip Planner

Search our weather history database for the weather conditions in past years. The results will help you decide how hot, cold, wet, or windy it might be!

Date:

Astronomy

Mar. 16, 2013 Rise Set
Actual Time 7:16 AM EDT 7:14 PM EDT
Civil Twilight 6:49 AM EDT 7:41 PM EDT
Nautical Twilight 6:18 AM EDT 8:12 PM EDT
Astronomical Twilight 5:46 AM EDT 8:44 PM EDT
Moon 9:46 AM EDT (3/16) No Moon Set
Length of Visible Light 12h 52m
Length of Day
11h 58m
Waxing Crescent, 23% of the Moon is Illuminated
Mar 16
Waxing Crescent
Mar 19
First Quarter
Mar 27
Full
Apr 3
Last Quarter
Apr 10
New

Hourly Weather History & Observations

Time (EDT) Temp. Windchill Dew Point Humidity Pressure Visibility Wind Dir Wind Speed Gust Speed Precip Events Conditions
12:54 AM 41.0 °F - 30.9 °F 67% 29.79 in 10.0 mi Calm Calm - N/A   Mostly Cloudy
1:54 AM 41.0 °F - 30.0 °F 65% 29.79 in 10.0 mi Calm Calm - N/A   Mostly Cloudy
2:54 AM 41.0 °F - 30.9 °F 67% 29.80 in 10.0 mi Calm Calm - N/A   Overcast
3:54 AM 46.0 °F 43.1 °F 32.0 °F 58% 29.79 in 10.0 mi North 5.8 mph - N/A   Overcast
4:54 AM 46.0 °F 44.8 °F 32.0 °F 58% 29.79 in 10.0 mi NE 3.5 mph - N/A   Overcast
5:54 AM 44.1 °F 41.5 °F 33.1 °F 65% 29.79 in 10.0 mi East 4.6 mph - N/A   Overcast
6:54 AM 45.0 °F 41.2 °F 33.1 °F 63% 29.81 in 9.0 mi East 6.9 mph - N/A   Overcast
7:54 AM 44.1 °F 39.0 °F 33.1 °F 65% 29.81 in 10.0 mi East 9.2 mph - N/A   Overcast
8:54 AM 44.1 °F 39.5 °F 34.0 °F 68% 29.83 in 9.0 mi East 8.1 mph - N/A   Overcast
9:54 AM 44.1 °F 40.1 °F 33.1 °F 65% 29.81 in 8.0 mi East 6.9 mph - 0.00 in   Overcast
10:54 AM 46.0 °F 41.9 °F 32.0 °F 58% 29.78 in 10.0 mi East 8.1 mph - N/A   Overcast
11:54 AM 48.9 °F - 32.0 °F 52% 29.76 in 10.0 mi East 6.9 mph - N/A   Overcast
12:54 PM 50.0 °F - 33.1 °F 52% 29.72 in 10.0 mi ESE 9.2 mph - N/A   Overcast
1:54 PM 50.0 °F - 34.0 °F 54% 29.69 in 9.0 mi ENE 13.8 mph - N/A   Overcast
2:54 PM 52.0 °F - 35.1 °F 53% 29.68 in 9.0 mi East 11.5 mph - N/A   Mostly Cloudy
3:54 PM 51.1 °F - 36.0 °F 56% 29.67 in 9.0 mi ENE 10.4 mph - N/A   Mostly Cloudy
4:54 PM 46.9 °F - 34.0 °F 61% 29.68 in 10.0 mi NE 15.0 mph - N/A   Overcast
5:54 PM 45.0 °F 38.5 °F 34.0 °F 65% 29.70 in 10.0 mi ENE 13.8 mph - N/A   Overcast
6:54 PM 43.0 °F 35.7 °F 33.1 °F 68% 29.75 in 10.0 mi NNE 15.0 mph - N/A   Overcast
7:54 PM 39.9 °F 33.9 °F 33.1 °F 77% 29.79 in 9.0 mi NNE 9.2 mph - N/A   Overcast
8:54 PM 39.0 °F 33.4 °F 32.0 °F 76% 29.84 in 8.0 mi NNE 8.1 mph - N/A   Overcast
9:54 PM 39.0 °F 34.8 °F 32.0 °F 76% 29.88 in 8.0 mi North 5.8 mph - N/A   Overcast
10:54 PM 37.9 °F 33.5 °F 32.0 °F 79% 29.91 in 8.0 mi North 5.8 mph - N/A   Overcast
11:54 PM 37.9 °F 33.5 °F 32.0 °F 79% 29.93 in 7.0 mi North 5.8 mph - N/A   Overcast